CW4588 Weather Reports


Display with metric or nautical units.
time (UTC)temp
F
wind
direction
speed
MPH
gust
MPH
rain 1hr
in
rain 24hr
in
rain mn
in
humidity
%
barometer
mb
20200402104036 41 192 5.0 0.0 0.00 0.00 0.03 78 978.8
20200402103024 41 175 5.0 0.0 0.00 0.00 0.03 79 978.9
20200402102046 41 202 6.0 0.0 0.00 0.00 0.03 79 978.9
20200402101039 39 206 1.0 0.0 0.00 0.00 0.03 82 979.3
20200402100030 39 206 3.0 0.0 0.00 0.00 0.03 83 979.4
20200402095025 38 203 4.0 0.0 0.00 0.00 0.03 86 979.4
20200402094038 38 205 3.0 0.0 0.00 0.00 0.03 85 979.5
20200402093030 37 178 2.0 0.0 0.00 0.00 0.03 87 979.7
20200402091028 36 176 3.0 0.0 0.00 0.00 0.03 89 979.7
20200402090044 36 178 2.0 0.0 0.00 0.00 0.03 89 979.7
20200402085030 36 178 3.0 0.0 0.00 0.00 0.03 90 979.9
20200402083042 35 188 3.0 0.0 0.00 0.00 0.03 92 980.2
20200402082027 34 174 3.0 0.0 0.00 0.00 0.03 93 980.4
20200402081051 34 174 4.0 0.0 0.00 0.00 0.03 93 980.4
20200402080044 33 169 4.0 0.0 0.00 0.00 0.03 94 980.4
20200402075027 33 168 4.0 0.0 0.00 0.00 0.03 94 980.7
20200402074050 33 161 3.0 0.0 0.00 0.00 0.03 94 980.9
20200402073036 32 167 4.0 0.0 0.00 0.00 0.03 94 981.0
20200402072026 32 189 4.0 0.0 0.00 0.00 0.03 94 981.0
20200402071032 32 147 3.0 0.0 0.00 0.00 0.03 94 981.2
20200402070031 32 154 4.0 0.0 0.00 0.00 0.03 94 981.5
20200402065039 32 157 3.0 0.0 0.00 0.00 0.03 94 981.5
20200402064130 31 151 3.0 0.0 0.00 0.00 0.03 95 981.5
20200402063028 30 144 3.0 0.0 0.00 0.00 0.03 94 982.0
20200402062052 30 148 2.0 0.0 0.00 0.00 0.03 94 982.0
20200402061047 30 151 2.0 0.0 0.00 0.00 0.03 94 982.3
20200402060040 29 138 0.0 0.0 0.00 0.00 0.03 94 982.3
20200402055104 29 138 0.0 0.0 0.00 0.00 0.03 94 982.5
20200402054040 29 140 0.0 0.0 0.00 0.00 0.03 94 982.6
20200402053027 28 141 0.0 0.0 0.00 0.00 0.03 94 982.9
20200402052027 28 141 1.0 0.0 0.00 0.00 0.03 94 982.9
20200402051033 28 141 1.0 0.0 0.00 0.00 0.03 93 983.0
20200402050047 28 121 0.0 0.0 0.00 0.00 0.03 93 983.0
20200402045041 27 116 0.0 0.0 0.00 0.00 0.02 93 983.3
20200402044043 27 126 1.0 0.0 0.00 0.00 0.02 93 983.5
20200402043042 27 128 0.0 0.0 0.00 0.00 0.02 92 983.5
20200402042034 27 127 1.0 0.0 0.00 0.00 0.01 92 983.6
20200402041027 27 120 1.0 0.0 0.00 0.00 0.01 92 984.0
20200402040040 27 124 1.0 0.0 0.00 0.00 0.00 90 984.0
20200402035039 27 113 0.0 0.0 0.00 0.00 0.00 89 984.2
20200402034030 28 113 0.0 0.0 0.00 0.00 0.00 87 984.5
20200402033057 28 114 0.0 0.0 0.00 0.00 0.00 85 984.5
20200402032045 28 119 0.0 0.0 0.00 0.00 0.00 82 984.8
20200402031033 28 120 1.0 0.0 0.00 0.00 0.00 79 984.8
20200402030030 28 103 2.0 0.0 0.00 0.00 0.00 77 985.1
20200402025045 29 103 0.0 0.0 0.00 0.00 0.00 75 985.1
20200402024048 29 110 1.0 0.0 0.00 0.00 0.00 72 985.6
20200402023034 29 106 0.0 0.0 0.00 0.00 0.00 72 986.0
20200402022046 29 104 0.0 0.0 0.00 0.00 0.00 71 986.0
20200402021044 29 109 0.0 0.0 0.00 0.00 0.00 71 986.1
20200402020042 29 110 1.0 0.0 0.00 0.00 0.00 70 986.1
20200402015033 29 109 1.0 0.0 0.00 0.00 0.00 70 986.4
20200402014042 29 128 2.0 0.0 0.00 0.00 0.00 70 986.7
20200402013030 29 117 1.0 0.0 0.00 0.00 0.00 70 986.9
20200402012055 29 120 1.0 0.0 0.00 0.00 0.00 69 986.9
20200402011055 29 112 1.0 0.0 0.00 0.00 0.00 68 987.2
20200402010044 29 116 1.0 0.0 0.00 0.00 0.00 68 987.2
20200402005041 29 138 1.0 0.0 0.00 0.00 0.00 68 987.5
20200402004050 29 104 1.0 0.0 0.00 0.00 0.00 67 987.9
20200402003044 29 99 0.0 0.0 0.00 0.00 0.00 68 987.9
20200402002041 29 96 0.0 0.0 0.00 0.00 0.00 67 988.2
20200402001031 29 96 0.0 0.0 0.00 0.00 0.00 68 988.8
20200402000314 29 83 0.0 0.0 0.00 0.00 0.00 67 988.8
20200401235045 29 82 0.0 0.0 0.00 0.00 0.00 67 988.9
20200401234049 28 82 0.0 0.0 0.00 0.00 0.00 67 989.3
20200401233046 29 80 0.0 0.0 0.00 0.00 0.00 67 989.3
20200401232042 29 102 1.0 0.0 0.00 0.00 0.00 66 989.3
20200401231037 29 95 0.0 0.0 0.00 0.00 0.00 67 989.7
20200401225036 29 93 0.0 0.0 0.00 0.00 0.00 68 989.9
20200401224033 29 93 0.0 0.0 0.00 0.00 0.00 67 990.1
20200401223041 29 93 0.0 0.0 0.00 0.00 0.00 67 990.1
20200401222030 29 93 0.0 0.0 0.00 0.00 0.00 68 990.4
20200401221044 29 86 0.0 0.0 0.00 0.00 0.00 67 990.5
20200401220053 29 85 0.0 0.0 0.00 0.00 0.00 68 990.5
20200401215026 29 85 0.0 0.0 0.00 0.00 0.00 68 990.5
20200401214044 29 83 0.0 0.0 0.00 0.00 0.00 69 990.8
20200401213029 29 61 0.0 0.0 0.00 0.00 0.00 68 991.0
20200401212036 29 61 0.0 0.0 0.00 0.00 0.00 70 991.0
20200401211027 29 58 0.0 0.0 0.00 0.00 0.00 69 991.2
20200401210053 29 30 0.0 0.0 0.00 0.00 0.00 72 991.2
20200401205045 29 360 0.0 0.0 0.00 0.00 0.00 72 991.2
20200401204038 28 360 0.0 0.0 0.00 0.00 0.00 74 991.4
20200401201052 28 332 0.0 0.0 0.00 0.00 0.00 77 991.8
20200401200047 28 332 0.0 0.0 0.00 0.00 0.00 76 991.7
20200401195042 28 332 0.0 0.0 0.00 0.00 0.00 76 991.9
20200401194050 28 332 0.0 0.0 0.00 0.00 0.00 76 991.9
20200401193052 29 332 0.0 0.0 0.00 0.00 0.00 74 992.0
20200401192056 29 332 0.0 0.0 0.00 0.00 0.00 72 992.1
20200401191048 29 332 0.0 0.0 0.00 0.00 0.00 72 992.1
20200401190032 29 332 0.0 0.0 0.00 0.00 0.00 72 992.1
20200401185046 30 332 0.0 0.0 0.00 0.00 0.00 71 992.1
20200401184127 30 332 0.0 0.0 0.00 0.00 0.00 70 992.0
20200401183045 30 332 0.0 0.0 0.00 0.00 0.00 70 992.0
20200401182030 30 332 0.0 0.0 0.00 0.00 0.00 70 992.1
20200401181056 31 332 0.0 0.0 0.00 0.00 0.00 69 992.3
20200401180048 31 332 0.0 0.0 0.00 0.00 0.00 68 992.3
20200401175037 31 332 0.0 0.0 0.00 0.00 0.00 68 992.4
20200401174053 32 332 0.0 0.0 0.00 0.00 0.00 67 992.5
20200401173030 32 332 0.0 0.0 0.00 0.00 0.00 65 992.5
20200401172037 33 332 0.0 0.0 0.00 0.00 0.00 64 992.5
20200401171047 33 332 0.0 0.0 0.00 0.00 0.00 63 992.5
20200401170048 34 332 0.0 0.0 0.00 0.00 0.00 62 992.5
20200401165038 34 332 0.0 0.0 0.00 0.00 0.00 60 992.5
20200401164029 35 332 0.0 0.0 0.00 0.00 0.00 60 992.5
20200401163029 35 332 0.0 0.0 0.00 0.00 0.00 59 992.5
20200401162046 35 332 0.0 0.0 0.00 0.00 0.00 59 992.5
20200401161058 35 332 0.0 0.0 0.00 0.00 0.00 60 992.7
20200401160026 35 332 0.0 0.0 0.00 0.00 0.00 59 992.7
20200401155042 35 332 0.0 0.0 0.00 0.00 0.00 59 992.7
20200401154029 36 357 0.0 0.0 0.00 0.00 0.00 60 992.9
20200401153032 36 356 2.0 0.0 0.00 0.00 0.00 59 992.9
20200401152045 36 328 3.0 0.0 0.00 0.00 0.00 55 992.9
20200401151052 37 343 5.0 0.0 0.00 0.00 0.00 57 992.9
20200401150036 37 330 5.0 0.0 0.00 0.00 0.00 56 993.0
20200401145029 36 343 4.0 0.0 0.00 0.00 0.00 57 993.0
20200401144030 36 316 6.0 0.0 0.00 0.00 0.00 56 992.9
20200401143032 36 325 6.0 0.0 0.00 0.00 0.00 55 993.0
20200401142050 37 313 3.0 0.0 0.00 0.00 0.00 56 993.0
20200401141042 38 360 7.0 0.0 0.00 0.00 0.00 53 992.9
20200401140034 39 299 8.0 0.0 0.00 0.00 0.00 51 992.9
20200401135045 40 304 5.0 0.0 0.00 0.00 0.00 52 992.9
20200401134042 39 340 6.0 0.0 0.00 0.00 0.00 52 993.0
20200401133038 39 359 6.0 0.0 0.00 0.00 0.00 53 992.9
20200401132034 40 343 6.0 0.0 0.00 0.00 0.00 51 992.9
20200401131029 40 335 7.0 0.0 0.00 0.00 0.00 51 993.0
20200401130046 39 21 3.0 0.0 0.00 0.00 0.00 51 993.0
20200401125046 38 336 3.0 0.0 0.00 0.00 0.00 50 993.2
20200401124044 38 320 7.0 0.0 0.00 0.00 0.00 48 993.4
20200401123042 38 288 5.0 0.0 0.00 0.00 0.00 49 993.4
20200401122046 37 353 8.0 0.0 0.00 0.00 0.00 49 993.5
20200401121030 37 309 5.0 0.0 0.00 0.00 0.00 51 993.5
20200401120053 38 299 7.0 0.0 0.00 0.00 0.00 53 993.5
20200401115029 37 322 7.0 0.0 0.00 0.00 0.00 54 993.5
20200401114046 37 326 9.0 0.0 0.00 0.00 0.00 53 993.5
20200401113034 37 295 10.0 0.0 0.00 0.00 0.00 56 993.6
20200401112028 37 294 8.0 0.0 0.00 0.00 0.00 57 993.6
20200401111032 36 320 9.0 0.0 0.00 0.00 0.00 59 993.5
20200401110041 36 308 11.0 0.0 0.00 0.00 0.00 58 993.5
20200401105030 37 332 11.0 0.0 0.00 0.00 0.00 60 993.3